Hourly Data Report for September 10, 2017

All times are specified in Local Standard Time (LST). Add 1 hour to adjust for Daylight Saving Time where and when it is observed.

ST. STEPHEN
NEW BRUNSWICK

45°12'36.600" N
67°15'10.300" W
26.10 m
8104935
71607
WSS

Download Data

Hourly Data (September 2017)
Hourly Data Report for September 10, 2017
Temp Definition
°C
Dew Point Temp Definition
°C
Rel Hum Definition
%
Wind Dir Definition
10's deg

Wind Spd Definition
km/h
Visibility Definition
km
Stn Press Definition
kPa
Hmdx Definition


Wind Chill Definition


Weather Definition


TIME
00:00 12.0 11.2 95 25 6   102.03     LegendNANA
01:00 11.8 11.1 96 26 5   102.04     LegendNANA
02:00 12.8 12.1 95 3 4   102.06     LegendNANA
03:00 12.5 11.0 90 4 11   102.07     LegendNANA
04:00 12.2 10.6 90 36 7   102.09     LegendNANA
05:00 11.5 9.8 89 2 8   102.15     LegendNANA
06:00 11.7 9.7 87 2 7   102.20     LegendNANA
07:00 11.7 9.5 86 30 3   102.25     LegendNANA
08:00 13.2 10.0 81 33 7   102.25     LegendNANA
09:00 15.2 10.7 74 36 9   102.25     LegendNANA
10:00 17.1 10.8 66 34 9   102.24     LegendNANA
11:00 19.3 11.7 62 33 9   102.19     LegendNANA
12:00 20.0 11.1 57 34 11   102.11     LegendNANA
13:00 21.0 9.4 47 30 9   102.03     LegendNANA
14:00 20.7 10.6 53 33 10   101.99     LegendNANA
15:00 19.4 11.6 61 33 9   101.93     LegendNANA
16:00 19.1 9.7 54 33 9   101.93     LegendNANA
17:00 18.1 9.5 57 33 8   101.94     LegendNANA
18:00 16.5 9.3 62 33 5   101.96     LegendNANA
19:00 15.2 8.0 62 32 4   101.98     LegendNANA
20:00 14.3 8.3 67 30 3   102.00     LegendNANA
21:00 13.5 8.5 72 29 4   101.99     LegendNANA
22:00 13.2 8.2 72 29 6   101.95     LegendNANA
23:00 12.6 8.2 75 28 6   101.92     LegendNANA

Notes on Data Quality.

Legend

  • E = Estimated
  • M = Missing
  • NA = Not Available
  • ‡ = Partner data that is not subject to review by the National Climate Archives
Date modified: